CARTOSAT-2F (43111 NORAD) Tracking and Keplerian Element Data

This shows tracking and keplerian element data for the satellite.

Feedback or suggestion? Click here.




ElementValue
Catalog43111
NameCARTOSAT-2F
Epoch Orbit7580
Epoch Day146.45768781
Epoch Year2019
RAAN208.3482
Inclination97.4339
Eccentricity0.0004311
Argument of Perigee349.8893
Mean Anonmoly104.4379
Mean Motion15.19289728
Decay Rate6.08E-06
L11 43111U 18004A 19146.45768781 .00000608 00000-0 32030-4 0 9996
L22 43111 97.4339 208.3482 0004311 349.8893 104.4379 15.19289728 75807

Live tracking and technical data element details for CARTOSAT-2F (NORAD 43111). CARTOSAT-2F can be tracked NOW for your location showing map with azimuth and elevation plus other details from your city location.

Track the satellite on the map from your city or location and see movement details for azimuth, elevation, latitude, longitude, range, height, and movement on the map or in text.







IsCatalogInMostPopularTable: catalog: 43111, numindb: 237
Update: records affected: 1



GetName: 43111 CARTOSAT-2F

Hit Count: updated at: Sun, 26 May 2019 19:52:20 GMT